STARLINK-11531, 62841

Orbit data source: Space-Track

STARLINK-11531, 62841 is a payload satellite owned by SpaceX/Seattle (US) in LEO that was launched on Mon, 27 Jan 2025 UTC via an FALCON 9 launch vehicle from the Air Force Eastern Test Range (AFETR). Payload-class satellites include a variety of spacecraft equipped with specific instruments for various scientific and technological missions. These include communications satellites like Starlink; space stations such as the ISS; scientific satellites like the Hubble; Earth observation satellites from companies like Planet Labs, Umbra, and HawkEye 360; GPS; miniature CubeSats for education and research; and military/defense satellites.

Loading next visibility...
Identifier
62841, 2025-019N
Orbit
LEO
Last TLE update
21 hours ago
Origin
Manufacturer
SpaceX/Seattle
Mission
Operational Commercial Communications
Bus & Motor
STARLINK V2M, Unknown motor
Mass
730 kg wet, ~700 kg dry
Launch date (UTC)
2025-01-27 (5 months ago)
Launch vehicle
FALCON 9
Launch site
Air Force Eastern Test Range (AFETR)
Object type
Payload
Rocket body
Debris
Shape & HBR
Box + 2 Pan, 29 m
Radar Cross Section
36.964 m², Large (>1 m²)

Expand to show TLE details & history

TLE from 21 hours ago
0 STARLINK-11531
1 62841U 25019N   25182.94726916  .00165467  00000-0  12623-2 0  9995
2 62841  43.0044  17.5357 0004553 267.8959  92.1387 15.70929548 24443
Epoch: 2025-07-01T22:44Z
TLE epoch observation values (Epoch: 2025-07-01T22:44:04.055Z)
Latitude
-0.00004°
Longitude
116.28335°
Altitude
356.127 km
Speed
7.697 km/s
True Right ascension
01h 10m 08s
True Declination
0° 00' 00"
Sunlit
Object was in daylight at epoch
Visualization orbit readout
Latitude
20.94794°
Longitude
134.97013°
Altitude
356.203 km
Speed
7.698 km/s
Apparent Right ascension
23h 43m 13s
Apparent Declination
-12° 36' 13"
Sunlit
Object is in daylight
Visualization observer readout
Local Sidereal Time
07:57:41
Azimuth
282.445° WNW
Elevation
-33.672°
Doppler factor
1
Orbital elements
Apogee altitude
361.287 km
Perigee altitude
355.153 km
Semi-major axis
6,736.357 km
Eccentricity
0.00046
Inclination
43.0044°
RAAN
17.5357°
Arg. of periapsis
267.8959°
True anomaly
Unknown
Mean anomaly
92.1387°
Eccentric anomaly
Unknown
Mean motion
3.9256 °/min
Orbital period
91.71 mins
BSTAR
0.0012623
Loading maneuver chart data...
Loading SW <> Apogee altitude chart data...
Loading historical data...
Loading historical data...
Loading historical data...
Loading historical data...
Loading historical data...
Loading historical data...
Loading historical data...

STARLINK-11531 Visibility forecast

Observer location: undefined°, undefined°

Span
Click to sort rows by Start time (UTC) header in descending order
Start Az.
Max El. time (UTC)
Max El. Az.
Max El.
End time (UTC)
End Az.
5 mins2025-07-02 20:30:41.549Z291.841° WNW2025-07-02 20:32:41.549Z341.295° N43.114°2025-07-02 20:35:41.549Z101.157° ESE
4 mins2025-07-03 16:09:41.549Z218.542° SW2025-07-03 16:11:41.549Z133.08° SE33.82°2025-07-03 16:13:41.549Z83.671° E
4 mins2025-07-03 17:45:41.549Z280.445° WNW2025-07-03 17:47:41.549Z12.419° NNE37.084°2025-07-03 17:49:41.549Z65.406° ENE
|